Weather home | Your neighborhood | Marine | Radar | Hurricane | Almanac

Daily weather history


Statistical History for Friday, February 17, 2017

Tampa Knight Airport, FL


  Actual Average (KTPA) Record (KTPA)
Temperature
Mean Temperature -  
Max Temperature 71 °F 83 °F (1975)
Min Temperature 54 °F 34 °F (1958)
Degree Days
Heating Degree Days    
Growing Degree Days 14 (Base - )  
Moisture
Dew Point   
Average Humidity    
Maximum Humidity    
Minimum Humidity    
Precipitation
Precipitation - - ()
Wind
Wind Speed   
Max Wind Speed   
Max Gust Speed   
Visibility   
Events   
Averages and records for this station are not official NWS values.
Key: T is trace of precipitation, MM is missing value
Source: NWS Daily Summary
Seasonal Weather Averages
Time(EST)TemperatureDew PointHumidity Sea Level Pressure Visibility Wind DirectionWind SpeedGust SpeedPrecipitationEventsConditions
12:15 AM 55.4 °F 48.2 °F 77% 30.08 in 10.0 miles Calm Calm - N/A   Clear
12:35 AM 55.4 °F 48.2 °F 77% 30.08 in 10.0 miles Calm Calm - N/A   Clear
12:55 AM 53.6 °F 48.2 °F 82% 30.08 in 10.0 miles Calm Calm - N/A   Clear
1:15 AM 53.6 °F 46.4 °F 77% 30.08 in 10.0 miles NE 3.5 mph - N/A   Clear
1:35 AM 53.6 °F 46.4 °F 77% 30.08 in 10.0 miles NE 5.8 mph - N/A   Clear
1:55 AM 53.6 °F 48.2 °F 82% 30.08 in 10.0 miles NE 4.6 mph - N/A   Clear
2:15 AM 53.6 °F 48.2 °F 82% 30.08 in 10.0 miles NNE 3.5 mph - N/A   Clear
2:35 AM 53.6 °F 48.2 °F 82% 30.07 in 10.0 miles NE 4.6 mph - N/A   Clear
2:55 AM 53.6 °F 48.2 °F 82% 30.07 in 10.0 miles NE 4.6 mph - N/A   Clear
3:15 AM 53.6 °F 48.2 °F 82% 30.07 in 10.0 miles NE 3.5 mph - N/A   Clear
3:35 AM 53.6 °F 48.2 °F 82% 30.07 in 10.0 miles NE 3.5 mph - N/A   Clear
3:55 AM 51.8 °F 48.2 °F 88% 30.07 in 10.0 miles Calm Calm - N/A   Clear
4:15 AM 50.0 °F 46.4 °F 87% 30.07 in 10.0 miles Calm Calm - N/A   Clear
4:35 AM 51.8 °F 48.2 °F 88% 30.08 in 10.0 miles Calm Calm - N/A   Clear
4:55 AM 51.8 °F 48.2 °F 88% 30.09 in 10.0 miles Calm Calm - N/A   Clear
5:15 AM 51.8 °F 48.2 °F 88% 30.10 in 10.0 miles Calm Calm - N/A   Clear
5:35 AM 51.8 °F 48.2 °F 88% 30.10 in 10.0 miles Calm Calm - N/A   Clear
5:55 AM 50.0 °F 48.2 °F 94% 30.10 in 10.0 miles Calm Calm - N/A   Clear
6:15 AM 50.0 °F 48.2 °F 94% 30.11 in 10.0 miles Calm Calm - N/A   Clear
6:35 AM 50.0 °F 48.2 °F 94% 30.11 in 10.0 miles Calm Calm - N/A   Clear
6:55 AM 50.0 °F 48.2 °F 94% 30.12 in 10.0 miles Calm Calm - N/A   Clear
7:15 AM 50.0 °F 48.2 °F 94% 30.13 in 10.0 miles Calm Calm - N/A   Clear
7:35 AM 51.8 °F 46.4 °F 82% 30.13 in 10.0 miles NNE 4.6 mph - N/A   Clear
7:55 AM 53.6 °F 48.2 °F 82% 30.13 in 10.0 miles NNE 4.6 mph - N/A   Clear
8:15 AM 55.4 °F 48.2 °F 77% 30.14 in 10.0 miles NE 5.8 mph - N/A   Clear
8:35 AM 57.2 °F 50.0 °F 77% 30.14 in 10.0 miles NE 5.8 mph - N/A   Clear
8:55 AM 59.0 °F 50.0 °F 72% 30.15 in 10.0 miles ENE 5.8 mph - N/A   Clear
9:15 AM 60.8 °F 48.2 °F 63% 30.15 in 10.0 miles ENE 4.6 mph - N/A   Clear
9:35 AM 62.6 °F 46.4 °F 55% 30.15 in 10.0 miles ENE 4.6 mph - N/A   Clear
9:55 AM 64.4 °F 46.4 °F 52% 30.15 in 10.0 miles Calm Calm - N/A   Clear
10:15 AM 66.2 °F 44.6 °F 46% 30.15 in 10.0 miles Calm Calm - N/A   Clear
10:35 AM 68.0 °F 46.4 °F 46% 30.15 in 10.0 miles SSW 3.5 mph - N/A   Clear
10:55 AM 68.0 °F 44.6 °F 43% 30.15 in 10.0 miles South 3.5 mph - N/A   Clear
11:15 AM 68.0 °F 42.8 °F 40% 30.14 in 10.0 miles South 4.6 mph - N/A   Clear
11:35 AM 69.8 °F 42.8 °F 38% 30.14 in 10.0 miles South 3.5 mph - N/A   Clear
11:55 AM 69.8 °F 44.6 °F 40% 30.13 in 10.0 miles North - - N/A   Clear
12:15 PM 71.6 °F 41.0 °F 33% 30.13 in 10.0 miles North - - N/A   Clear
12:35 PM 71.6 °F 41.0 °F 33% 30.12 in 10.0 miles SW 4.6 mph - N/A   Scattered Clouds
12:55 PM 71.6 °F 41.0 °F 33% 30.11 in 10.0 miles SW 5.8 mph - N/A   Scattered Clouds
1:15 PM 73.4 °F 41.0 °F 31% 30.10 in 10.0 miles SW 4.6 mph - N/A   Scattered Clouds
1:35 PM 73.4 °F 39.2 °F 29% 30.10 in 10.0 miles SW 4.6 mph - N/A   Clear
1:55 PM 73.4 °F 39.2 °F 29% 30.09 in 10.0 miles SSW 5.8 mph - N/A   Clear
2:15 PM 75.2 °F 39.2 °F 27% 30.08 in 10.0 miles SSW 3.5 mph - N/A   Clear
2:35 PM 75.2 °F 41.0 °F 29% 30.07 in 10.0 miles SW 5.8 mph - N/A   Clear
2:55 PM 75.2 °F 39.2 °F 27% 30.06 in 10.0 miles North - - N/A   Clear
3:15 PM 77.0 °F 41.0 °F 28% 30.05 in 10.0 miles SW 4.6 mph - N/A   Clear
3:35 PM 77.0 °F 41.0 °F 28% 30.05 in 10.0 miles SSW 3.5 mph - N/A   Clear
3:55 PM 77.0 °F 39.2 °F 26% 30.04 in 10.0 miles SSW 3.5 mph - N/A   Clear
4:15 PM 77.0 °F 41.0 °F 28% 30.04 in 10.0 miles West 3.5 mph - N/A   Clear
4:35 PM 75.2 °F 42.8 °F 31% 30.05 in 10.0 miles West 5.8 mph - N/A   Scattered Clouds
4:55 PM 73.4 °F 42.8 °F 33% 30.04 in 10.0 miles West 4.6 mph - N/A   Scattered Clouds
5:15 PM 73.4 °F 42.8 °F 33% 30.04 in 10.0 miles West 4.6 mph - N/A   Scattered Clouds
5:35 PM 73.4 °F 44.6 °F 36% 30.04 in 10.0 miles West 4.6 mph - N/A   Scattered Clouds
5:55 PM 71.6 °F 44.6 °F 38% 30.05 in 10.0 miles West 4.6 mph - N/A   Scattered Clouds
6:15 PM 69.8 °F 50.0 °F 49% 30.04 in 10.0 miles WNW 3.5 mph - N/A   Clear
6:35 PM 68.0 °F 50.0 °F 52% 30.04 in 10.0 miles Calm Calm - N/A   Scattered Clouds
6:55 PM 68.0 °F 51.8 °F 56% 30.05 in 10.0 miles Calm Calm - N/A   Scattered Clouds
7:15 PM 68.0 °F 51.8 °F 56% 30.05 in 10.0 miles Calm Calm - N/A   Scattered Clouds
7:35 PM 66.2 °F 50.0 °F 56% 30.06 in 10.0 miles Calm Calm - N/A   Scattered Clouds
7:55 PM 66.2 °F 50.0 °F 56% 30.06 in 10.0 miles NW 3.5 mph - N/A   Clear
8:15 PM 64.4 °F 50.0 °F 59% 30.07 in 10.0 miles Calm Calm - N/A   Clear
8:35 PM 64.4 °F 50.0 °F 59% 30.08 in 10.0 miles Calm Calm - N/A   Clear
8:55 PM 62.6 °F 50.0 °F 63% 30.08 in 10.0 miles Calm Calm - N/A   Scattered Clouds
9:15 PM 62.6 °F 50.0 °F 63% 30.07 in 10.0 miles Calm Calm - N/A   Scattered Clouds
9:35 PM 62.6 °F 50.0 °F 63% 30.07 in 10.0 miles Calm Calm - N/A   Scattered Clouds
10:15 PM 60.8 °F 50.0 °F 68% 30.06 in 10.0 miles Calm Calm - N/A   Scattered Clouds
10:35 PM 60.8 °F 50.0 °F 68% 30.06 in 10.0 miles Calm Calm - N/A   Scattered Clouds
10:55 PM 60.8 °F 50.0 °F 68% 30.06 in 10.0 miles NE 3.5 mph - N/A   Scattered Clouds
11:15 PM 59.0 °F 50.0 °F 72% 30.05 in 10.0 miles NE 4.6 mph - N/A   Mostly Cloudy
11:35 PM 60.8 °F 50.0 °F 68% 30.05 in 10.0 miles NE 4.6 mph - N/A   Scattered Clouds
11:55 PM 60.8 °F 51.8 °F 72% 30.05 in 10.0 miles NE 3.5 mph - N/A   Scattered Clouds
ADVERTISEMENT
Enter city or zip code to search weather conditions:


  • 490 First Avenue South
  • St. Petersburg, FL 33701
  • 727-893-8111